Torna al catalogo

IUS R/B(2)

AttivoMEO
NORAD 13970·ROCKET BODY·🇺🇸 United States

Lanciato Apr 4, 1983 da Cape Canaveral Space Force Station

Loading…

Prossimi Passaggi (prossime 24 ore)

TLE

AggiornatoSource: Space-Track

Epoca: Sep 14, 2026, 06:50 UTC

1 13970U 83026C   26257.28539102 -.00000130  00000-0  00000-0 0  9996
2 13970   4.6942  36.2918 1918297 220.2012 174.6312  1.32157011209738

Traccia IUS R/B(2) in tempo reale con AllMySat

Download on the App Store